Weather History for Hayward, WI

Change the Weather History Date:

Friday, May 9, 2014

  Actual Average Record
Temperature  
Mean Temperature 48 °F -  
Max Temperature 52 °F 70 °F 86 °F (2007)
Min Temperature 39 °F 35 °F 28 °F (1999)
Degree Days  
Heating Degree Days 18    
Moisture  
Dew Point 44 °F    
Average Humidity 91    
Maximum Humidity 100    
Minimum Humidity 77    
Precipitation  
Precipitation 0.02 in - - ()
Sea Level Pressure  
Sea Level Pressure 29.58 in    
Wind  
Wind Speed 8 mph (WSW)    
Max Wind Speed 14 mph    
Max Gust Speed 26 mph    
Visibility 8 miles    
Events Rain , Thunderstorm    
Averages and records for this station are not official NWS values.
T = Trace of Precipitation, MM = Missing Value Source: NWS Daily Summary

Daily Weather History Graph

Daily Weather History Graph

Search for Another Location

Airport:

Trip Planner

Search our weather history database for the weather conditions in past years. The results will help you decide how hot, cold, wet, or windy it might be!

Date:

Astronomy

May. 09, 2014 Rise Set
Actual Time 5:41 AM CDT 8:24 PM CDT
Civil Twilight 5:06 AM CDT 8:58 PM CDT
Nautical Twilight 4:23 AM CDT 9:42 PM CDT
Astronomical Twilight 3:33 AM CDT 10:32 PM CDT
Moon 3:05 PM CDT (5/9) 3:01 AM CDT (5/9)
Length of Visible Light 15h 51m
Length of Day
14h 43m
Waxing Gibbous, 74% of the Moon is Illuminated
May 9
Waxing Gibbous
May 14
Full
May 21
Last Quarter
May 28
New
Jun 5
First Quarter

Hourly Weather History & Observations

Time (CDT) Temp. Windchill Dew Point Humidity Pressure Visibility Wind Dir Wind Speed Gust Speed Precip Events Conditions
12:33 AM - - - N/A% 29.60 in - North - - N/A Thunderstorm Thunderstorm
12:53 AM - - - N/A% 29.58 in - North - - N/A Thunderstorm Thunderstorm
1:13 AM - - - N/A% 29.56 in - North - - N/A   Unknown
1:53 AM - - - N/A% 29.53 in - North - - N/A   Unknown
2:53 AM - - - N/A% 29.51 in - North - - N/A   Unknown
4:53 AM - - - N/A% 29.47 in - North - - N/A   Unknown
5:53 AM - - - N/A% 29.47 in - North - - N/A   Unknown
6:53 AM - - - N/A% 29.47 in - North - - N/A   Unknown
7:53 AM - - - N/A% 29.47 in - North - - N/A   Unknown
8:53 AM - - - N/A% 29.47 in - North - - N/A   Unknown
9:53 AM 52.0 °F - - N/A% 29.48 in - SW 6.9 mph - N/A   Unknown
10:24 AM 51.1 °F - 50.0 °F 96% 29.49 in 10.0 mi SSW 8.1 mph - N/A   Overcast
10:53 AM 50.0 °F - 50.0 °F 100% 29.50 in 2.5 mi SW 10.4 mph 18.4 mph 0.00 in Rain Light Rain
11:07 AM 48.9 °F - 48.9 °F 100% 29.50 in 6.0 mi SW 9.2 mph 23.0 mph 0.00 in   Overcast
11:53 AM 48.9 °F - 48.9 °F 100% 29.50 in 4.0 mi SW 9.2 mph - 0.01 in   Overcast
12:07 PM 50.0 °F - 48.9 °F 96% 29.50 in 6.0 mi SW 8.1 mph 18.4 mph 0.00 in Rain Light Rain
12:53 PM 48.9 °F - 48.0 °F 97% 29.51 in 4.0 mi SW 8.1 mph - 0.00 in Rain Light Rain
1:09 PM 48.9 °F - 46.9 °F 93% 29.51 in 10.0 mi SW 10.4 mph 20.7 mph 0.00 in   Overcast
1:53 PM 48.0 °F - 45.0 °F 89% 29.54 in 10.0 mi WSW 13.8 mph 25.3 mph 0.00 in   Overcast
2:53 PM 46.9 °F - 42.1 °F 83% 29.56 in 10.0 mi WSW 11.5 mph 24.2 mph 0.00 in   Overcast
3:53 PM 48.0 °F - 43.0 °F 83% 29.57 in 10.0 mi WSW 8.1 mph 20.7 mph N/A   Overcast
4:53 PM 46.9 °F - 39.9 °F 77% 29.60 in 10.0 mi West 12.7 mph 26.5 mph 0.00 in   Overcast
5:53 PM 45.0 °F 40.6 °F 43.0 °F 93% 29.63 in 8.0 mi West 8.1 mph 18.4 mph 0.00 in Rain Light Rain
6:02 PM 45.0 °F 42.6 °F 44.1 °F 97% 29.64 in 5.0 mi Variable 4.6 mph 18.4 mph 0.01 in Rain Light Rain
6:26 PM 45.0 °F 41.2 °F 42.1 °F 90% 29.64 in 10.0 mi Variable 6.9 mph 17.3 mph 0.01 in   Overcast
6:53 PM 46.0 °F 41.9 °F 41.0 °F 83% 29.66 in 10.0 mi West 8.1 mph 19.6 mph 0.01 in   Overcast
7:53 PM 46.0 °F 41.9 °F 42.1 °F 86% 29.69 in 10.0 mi West 8.1 mph 19.6 mph N/A   Overcast
8:10 PM 45.0 °F 40.6 °F 43.0 °F 93% 29.70 in 9.0 mi West 8.1 mph - 0.00 in Rain Light Rain
8:31 PM 45.0 °F 41.2 °F 43.0 °F 93% 29.70 in 10.0 mi Variable 6.9 mph - 0.00 in   Overcast
8:53 PM 45.0 °F 41.8 °F 42.1 °F 90% 29.71 in 10.0 mi Variable 5.8 mph - 0.00 in   Overcast
9:14 PM 46.0 °F 43.1 °F 41.0 °F 83% 29.72 in 10.0 mi Variable 5.8 mph - N/A   Overcast
9:53 PM 46.0 °F 43.9 °F 41.0 °F 83% 29.76 in 10.0 mi Variable 4.6 mph - N/A   Overcast
10:53 PM 43.0 °F - 39.9 °F 89% 29.78 in 10.0 mi Calm Calm - N/A   Partly Cloudy
11:53 PM 39.0 °F - 37.9 °F 96% 29.78 in 10.0 mi Calm Calm - N/A   Clear